This is the latest recevied weather packets stored in our database for station/object K0GDI. If no packets are shown the sender has not sent any weather packets the latest 10 day(s).
| Time | Temp. | Humidity | Pressure | Rain* | Wind** | Luminosity | Snow |
|---|---|---|---|---|---|---|---|
| 1788064936 | 21.67° C | 81% | 1016.8 hPa | 0 mm | 0.89 m/s, 164° | - | - |
| 1788064335 | 21.11° C | 81% | 1016.8 hPa | 0 mm | 0.89 m/s, 155° | - | - |
| 1788063735 | 21.67° C | 82% | 1016.8 hPa | 0 mm | 0.89 m/s, 164° | - | - |
| 1788063134 | 21.67° C | 80% | 1016.8 hPa | 0 mm | 1.34 m/s, 157° | - | - |
| 1788062534 | 21.67° C | 82% | 1016.8 hPa | 0 mm | 0.89 m/s, 155° | - | - |
| 1788061933 | 21.67° C | 80% | 1016.8 hPa | 0 mm | 1.34 m/s, 152° | - | - |
| 1788061333 | 21.67° C | 81% | 1016.8 hPa | 0 mm | 1.34 m/s, 152° | - | - |
| 1788060732 | 21.67° C | 81% | 1016.8 hPa | 0 mm | 1.34 m/s, 152° | - | - |
| 1788060132 | 21.67° C | 82% | 1016.8 hPa | 0 mm | 1.34 m/s, 153° | - | - |
| 1788059532 | 21.11° C | 84% | 1016.8 hPa | 0 mm | 0.89 m/s, 147° | - | - |
| 1788058931 | 21.11° C | 85% | 1016.8 hPa | 0 mm | 0.89 m/s, 153° | - | - |
| 1788058331 | 21.11° C | 86% | 1016.8 hPa | 0 mm | 0.89 m/s, 157° | - | - |
| 1788057730 | 21.11° C | 86% | 1016.8 hPa | 0 mm | 0.89 m/s, 150° | - | - |
| 1788057129 | 20.56° C | 87% | 1016.8 hPa | 0 mm | 0.89 m/s, 145° | - | - |
| 1788056528 | 20° C | 90% | 1016.8 hPa | 0 mm | 0.45 m/s, 146° | - | - |
| 1788055927 | 20° C | 90% | 1016.8 hPa | 0 mm | 0.45 m/s, 142° | - | - |
| 1788055326 | 20.56° C | 89% | 1016.8 hPa | 0 mm | 0.45 m/s, 144° | - | - |
| 1788054725 | 20.56° C | 89% | 1016.8 hPa | 0 mm | 0.45 m/s, 158° | - | - |
| 1788054124 | 20.56° C | 89% | 1016.8 hPa | 0 mm | 0.45 m/s, 127° | - | - |
| 1788053522 | 21.11° C | 88% | 1016.8 hPa | 0 mm | 0.45 m/s, 127° | - | - |
| 1788052921 | 21.11° C | 86% | 1016.8 hPa | 0 mm | 0.45 m/s, 143° | - | - |
| 1788052320 | 21.67° C | 86% | 1016.8 hPa | 0 mm | 0.45 m/s, 136° | - | - |
| 1788051720 | 21.67° C | 84% | 1016.8 hPa | 0 mm | 0.45 m/s, 142° | - | - |
| 1788051118 | 22.22° C | 83% | 1016.8 hPa | 0 mm | 0.45 m/s, 147° | - | - |
| 1788050517 | 22.78° C | 82% | 1016.8 hPa | 0 mm | 0.45 m/s, 149° | - | - |
* Rain latest hour (hover to see other rain measurements)
** Current wind speed in m/s (hover to see current wind gust speed)